This is the latest recevied weather packets stored in our database for station/object KB7KFC-3. If no packets are shown the sender has not sent any weather packets the latest 10 day(s).
| Time | Temp. | Humidity | Pressure | Rain* | Wind** | Luminosity | Snow |
|---|---|---|---|---|---|---|---|
| 1777006591 | 20° C | 25% | 1011.4 hPa | 0 mm | - | - | - |
| 1777006413 | 20° C | 26% | 1011.5 hPa | 0 mm | - | - | - |
| 1777006232 | 20° C | 25% | 1011.5 hPa | 0 mm | - | - | - |
| 1777006052 | 20.56° C | 22% | 1011.4 hPa | 0 mm | - | - | - |
| 1777005871 | 20.56° C | 22% | 1011.5 hPa | 0 mm | - | - | - |
| 1777005691 | 20.56° C | 23% | 1011.4 hPa | 0 mm | - | - | - |
| 1777005512 | 20.56° C | 23% | 1011.4 hPa | 0 mm | - | - | - |
| 1777005332 | 21.11° C | 23% | 1011.3 hPa | 0 mm | - | - | - |
| 1777005152 | 21.11° C | 23% | 1011.4 hPa | 0 mm | - | - | - |
| 1777004971 | 21.11° C | 23% | 1011.3 hPa | 0 mm | - | - | - |
| 1777004791 | 21.67° C | 23% | 1011.3 hPa | 0 mm | - | - | - |
| 1777004611 | 21.67° C | 21% | 1011.4 hPa | 0 mm | - | - | - |
| 1777004432 | 21.67° C | 21% | 1011.4 hPa | 0 mm | - | - | - |
| 1777004252 | 21.67° C | 21% | 1011.5 hPa | 0 mm | - | - | - |
| 1777004071 | 22.22° C | 20% | 1011.4 hPa | 0 mm | - | - | - |
| 1777003892 | 22.22° C | 19% | 1011.4 hPa | 0 mm | - | - | - |
| 1777003712 | 22.22° C | 18% | 1011.3 hPa | 0 mm | - | - | - |
| 1777003531 | 22.22° C | 18% | 1011.3 hPa | 0 mm | - | - | - |
| 1777003352 | 22.78° C | 18% | 1011.3 hPa | 0 mm | - | - | - |
| 1777003172 | 22.78° C | 18% | 1011.3 hPa | 0 mm | - | - | - |
| 1777002992 | 22.78° C | 18% | 1011.3 hPa | 0 mm | - | - | - |
| 1777002812 | 22.22° C | 19% | 1011.3 hPa | 0 mm | - | - | - |
| 1777002632 | 22.22° C | 19% | 1011.3 hPa | 0 mm | - | - | - |
| 1777002452 | 22.22° C | 22% | 1011.2 hPa | 0 mm | - | - | - |
| 1777002272 | 22.22° C | 20% | 1011.2 hPa | 0 mm | - | - | - |
* Rain latest hour (hover to see other rain measurements)
** Current wind speed in m/s (hover to see current wind gust speed)